Tracking 31027 objects as of 19-Jul-2025
HD Live streaming from Space Station
objects crossing your sky now

TRANSIT 5B-1 DEB

Track TRANSIT 5B-1 DEB now!
10-day predictions


NORAD ID: 2097
Int'l Code: 1963-038G
Perigee: 990.0 km
Apogee: 1,052.4 km
Inclination: 90.0 °
Period: 105.4 minutes
Semi major axis: 7392 km
RCS: 0.0075 m2 (small)
Launch date: September 28, 1963
Source: United States (US)
Launch site: AIR FORCE WESTERN TEST RANGE (AFWTR)

Note: This is SATELLITE DEBRIS
Your satellite tracking list
STARLINK-31611
Track 1 satellite(s)




NASA's NSSDC Master Catalog

Two Line Element Set (TLE):
1 02097U 63038G   25199.63584334  .00000385  00000-0  45382-3 0  9991
2 02097  90.0077 338.1025 0042222 105.5270 265.8237 13.65966777 54084
Source of the keplerian elements: AFSPC